This demonstration page uses our WeatherBlox Daily Observations layout. Learn more.

Hourly Observations for November 6, 2016

Temp ( °F °C ) Dew Point ( °F °C ) Humidity (%) Winds ( mph kmh ) Pressure ( in mb ) Visibility ( mi km ) Precip ( " mm )
12:54 am 00:54 Clear 49 9.4 41 5 74 74 S 8 13 30.24 1024 10 16.0934 0 0
1:54 am 01:54 Clear 48 8.9 41 5 77 77 S 9 15 30.24 1024 10 16.0934 0 0
1:54 am 01:54 Clear 50 10 40 4.4 68 68 SSE 9 15 30.22 1024 10 16.0934 0 0
2:54 am 02:54 Clear 48 8.9 39 3.9 71 71 S 6 9 30.22 1023 10 16.0934 0 0
3:54 am 03:54 Mostly Clear 49 9.4 39 3.9 69 69 Calm 30.22 1023 10 16.0934 0 0
4:54 am 04:54 Mostly Cloudy 49 9.4 40 4.4 71 71 SE 3 6 30.23 1024 10 16.0934 0 0
5:54 am 05:54 Cloudy 51 10.6 41 5 69 69 SE 6 9 30.23 1024 10 16.0934 0 0
6:54 am 06:54 Cloudy 52 11.1 41 5 66 66 SSE 8 13 30.23 1024 10 16.0934 0 0
7:54 am 07:54 Cloudy 52 11.1 42 5.6 69 69 S 9 15 30.24 1024 10 16.0934 0 0
8:54 am 08:54 Cloudy 56 13.3 42 5.6 60 60 SSE 9 15 30.23 1024 10 16.0934 0 0
9:54 am 09:54 Sunny 60 15.6 43 6.1 53 53 SSE 10 17 30.21 1023 10 16.0934 0 0
10:54 am 10:54 Mostly Sunny 66 18.9 44 6.7 45 45 S 10 17 30.18 1022 10 16.0934 0 0
11:54 am 11:54 Cloudy 70 21.1 43 6.1 38 38 SSE 17 28 30.16 1021 10 16.0934 0 0
12:54 pm 12:54 Mostly Cloudy 69 20.6 44 6.7 41 41 S 14 22 30.14 1021 10 16.0934 0 0
1:54 pm 13:54 Cloudy 69 20.6 44 6.7 41 41 S 12 19 30.12 1020 10 16.0934 0 0
2:54 pm 14:54 Cloudy 69 20.6 44 6.7 41 41 SSE 12 19 30.11 1020 10 16.0934 0 0
3:54 pm 15:54 Cloudy 68 20 44 6.7 42 42 SSE 13 20 30.11 1020 10 16.0934 0 0
4:54 pm 16:54 Mostly Sunny 66 18.9 44 6.7 45 45 SSE 13 20 30.11 1020 10 16.0934 0 0
5:54 pm 17:54 Partly Cloudy 63 17.2 44 6.7 50 50 SE 10 17 30.11 1020 10 16.0934 0 0
6:54 pm 18:54 Clear 62 16.7 43 6.1 50 50 SE 12 19 30.12 1020 10 16.0934 0 0
7:54 pm 19:54 Clear 61 16.1 44 6.7 54 54 SSE 12 19 30.12 1020 10 16.0934 0 0
8:54 pm 20:54 Clear 58 14.4 44 6.7 60 60 SSE 12 19 30.13 1020 10 16.0934 0 0
9:54 pm 21:54 Mostly Cloudy 56 13.3 44 6.7 65 65 S 9 15 30.14 1021 10 16.0934 0 0
10:54 pm 22:54 Cloudy 56 13.3 44 6.7 65 65 SSE 14 22 30.13 1020 10 16.0934 0 0
11:54 pm 23:54 Mostly Clear 55 12.8 43 6.1 64 64 S 13 20 30.12 1020 10 16.0934 0 0

Powered by AerisWeather